Satellite: FIREBIRD FU3 Catalog number: 40377 Epoch time: 15050.46238826 Element set: 999 Inclination: 099.1226 deg RA of node: 062.3561 deg Eccentricity: 0.0164727 Arg of perigee: 278.2529 deg Mean anomaly: 080.0053 deg Mean motion: 15.04807584 rev/day Decay rate: 1.2601e-04 rev/day^2 Epoch rev: 283 Checksum: 303
Satellite: FIREBIRD FU4 Catalog number: 40378 Epoch time: 15050.46201779 Element set: 999 Inclination: 099.1227 deg RA of node: 062.3566 deg Eccentricity: 0.0164912 Arg of perigee: 278.2953 deg Mean anomaly: 079.9622 deg Mean motion: 15.04835749 rev/day Decay rate: 1.2377e-04 rev/day^2 Epoch rev: 283 Checksum: 338
Satellite: GRIFEX Catalog number: 40379 Epoch time: 15049.99827657 Element set: 999 Inclination: 099.1263 deg RA of node: 061.8066 deg Eccentricity: 0.0164559 Arg of perigee: 280.8031 deg Mean anomaly: 077.4762 deg Mean motion: 15.04636137 rev/day Decay rate: 1.0359e-04 rev/day^2 Epoch rev: 276 Checksum: 340
/EX
participants (1)
-
Ray Hoad